Tracking 31030 objects as of 15-Jul-2025
HD Live streaming from Space Station
objects crossing your sky now

FENGYUN 1C DEB

Track FENGYUN 1C DEB now!
10-day predictions


NORAD ID: 30403
Int'l Code: 1999-025ADS
Perigee: 775.0 km
Apogee: 890.7 km
Inclination: 99.1 °
Period: 101.4 minutes
Semi major axis: 7203 km
RCS: 0.0223 m2 (small)
Launch date: May 10, 1999
Source: People's Republic of China (PRC)
Launch site: Taiyaun Space Center, China (TSC)

Note: This is SATELLITE DEBRIS
Your satellite tracking list
Your tracking list is empty




NASA's NSSDC Master Catalog

Two Line Element Set (TLE):
1 30403U 99025ADS 25195.72996270  .00002707  00000-0  12555-2 0  9995
2 30403  99.0657 270.3873 0080338  94.5760 266.4597 14.19892613946621
Source of the keplerian elements: AFSPC